Terminal Aerodrome Forecast
Issued by NWS

Current Version | Previous Version | Graphics & Text | Print | Product List | Glossary On
Versions: 1 2 3 4 5 6 7 8 9 10 11 12 13 14 15 16 17 18 19 20
191
FTUS41 KPBZ 220902 AAA
TAFMGW
TAF AMD
KMGW 220902Z 2209/2306 33004KT P6SM OVC010
     FM221600 34005KT P6SM -SHRA BKN025
     FM222300 34005KT P6SM BKN020
     FM230200 35003KT P6SM BKN010=

USA.gov is the U.S. government's official web portal to all federal, state and local government web resources and services.